This is the latest recevied weather packets stored in our database for station/object JE4YKI-13. If no packets are shown the sender has not sent any weather packets the latest 10 day(s).
| Time | Temp. | Humidity | Pressure | Rain* | Wind** | Luminosity | Snow |
|---|---|---|---|---|---|---|---|
| 1777780054 | 15.56° C | 94% | 1003.9 hPa | 2.79 mm | - | - | - |
| 1777779454 | 15.56° C | 94% | 1004.1 hPa | 1.52 mm | - | - | - |
| 1777778853 | 15.56° C | 94% | 1004.5 hPa | 4.57 mm | - | - | - |
| 1777778253 | 15.56° C | 93% | 1004.8 hPa | 2.03 mm | - | - | - |
| 1777777653 | 15.56° C | 93% | 1004.8 hPa | 7.37 mm | - | - | - |
| 1777777052 | 15.56° C | 93% | 1005 hPa | 1.02 mm | - | - | - |
| 1777776452 | 15.56° C | 93% | 1005.2 hPa | 3.56 mm | - | - | - |
| 1777775852 | 15.56° C | 93% | 1005.6 hPa | 0 mm | - | - | - |
| 1777775251 | 15.56° C | 92% | 1005.9 hPa | 0 mm | - | - | - |
| 1777774650 | 15.56° C | 92% | 1006 hPa | 0 mm | - | - | - |
| 1777774049 | 15.56° C | 92% | 1006.1 hPa | 0 mm | - | - | - |
| 1777773449 | 15.56° C | 92% | 1006.4 hPa | 0 mm | - | - | - |
| 1777772248 | 15.56° C | 90% | 1006.8 hPa | 0 mm | - | - | - |
| 1777771648 | 16.11° C | 88% | 1006.9 hPa | 0 mm | - | - | - |
| 1777771048 | 16.11° C | 89% | 1007.2 hPa | 0 mm | - | - | - |
| 1777770448 | 16.11° C | 88% | 1007.6 hPa | 0 mm | - | - | - |
| 1777769847 | 16.11° C | 87% | 1007.7 hPa | 0 mm | - | - | - |
| 1777769246 | 16.11° C | 88% | 1007.7 hPa | 1.27 mm | - | - | - |
| 1777768646 | 16.11° C | 91% | 1008 hPa | 3.3 mm | - | - | - |
| 1777768046 | 16.11° C | 93% | 1008 hPa | 1.27 mm | - | - | - |
| 1777767446 | 15.56° C | 93% | 1007.9 hPa | 3.81 mm | - | - | - |
| 1777766845 | 15.56° C | 93% | 1008.2 hPa | 4.83 mm | - | - | - |
| 1777766244 | 15.56° C | 92% | 1008.1 hPa | 4.83 mm | - | - | - |
| 1777765644 | 15.56° C | 91% | 1008 hPa | 1.78 mm | - | - | - |
| 1777765044 | 15.56° C | 91% | 1008.1 hPa | 0 mm | - | - | - |
* Rain latest hour (hover to see other rain measurements)
** Current wind speed in m/s (hover to see current wind gust speed)